Regional Weather Roundup
Issued by NWS

Home | Current Version | Previous Version | Graphics & Text | Print | Product List | Glossary Off
Versions: 1 2 3 4 5 6 7 8 9 10 11 12 13 14 15 16 17 18 19 20 21 22 23 24 25 26 27 28 29 30 31 32 33 34 35 36 37 38 39 40 41 42 43 44 45 46 47 48 49 50

000
ASUS43 KFSD 260710
RWRSD

WEATHER ROUNDUP FOR SOUTH DAKOTA
NATIONAL WEATHER SERVICE SIOUX FALLS SD
200 AM CDT THU APR 26 2018

NOTE: "FAIR" INDICATES FEW OR NO CLOUDS BELOW 12,000 FEET WITH NO
SIGNIFICANT WEATHER AND/OR OBSTRUCTIONS TO VISIBILITY.


SDZ001>005-009-010-012>017-260800-
NORTHWEST AND NORTH CENTRAL SOUTH DAKOTA

CITY           SKY/WX    TMP DP  RH WIND       PRES   REMARKS
BUFFALO          N/A     46  30  53 NW16      30.00R
FAITH            N/A     49  36  61 N22       29.95R
MOBRIDGE       CLOUDY    52  35  52 N12       29.84R
$$

SDZ012>016-024>037-041>051-057-063-072>074-260800-
SOUTHWEST AND SOUTH CENTRAL SOUTH DAKOTA

CITY           SKY/WX    TMP DP  RH WIND       PRES   REMARKS
RAPID CTY ARPT CLOUDY    53  31  42 NW24G32   30.00R
PIERRE         CLOUDY    46  32  58 W6        29.85R
CUSTER         MOCLDY    46  22  38 N15G28    30.03R
ELLSWORTH AFB  CLOUDY    52  33  47 NW26G32   29.99R
PHILIP         CLOUDY    57  33  40 N24       29.91R
PINE RIDGE     CLOUDY    56  28  34 N13G21    29.97R
SPEARFISH      CLOUDY    48  32  53 NW14      30.11R
WINNER         FAIR      52  31  44 SW16      29.88R
$$

SDZ004>011-016>023-039-040-260800-
NORTHEAST SOUTH DAKOTA

CITY           SKY/WX    TMP DP  RH WIND       PRES   REMARKS
ABERDEEN       MOCLDY    39  34  82 SW7       29.82F
WATERTOWN      CLOUDY    41  33  73 S9        29.85F
BROOKINGS      CLOUDY    44  33  65 S9        29.89F
SISSETON         N/A     53  32  44 SW28G37   29.76F
$$

SDZ017-020-022-023-036>040-048>070-260800-
SOUTHEAST SOUTH DAKOTA

CITY           SKY/WX    TMP DP  RH WIND       PRES   REMARKS
SIOUX FALLS    CLOUDY    48  31  51 SW9       29.91F
HURON          CLOUDY    48  34  58 S13       29.85F
CHAMBERLAIN    CLOUDY    48  35  60 SW8       29.86F
MITCHELL       CLOUDY    49  34  56 S12       29.88F
YANKTON        MOCLDY    46  31  55 S6        29.92F
$$

ABBREVIATIONS USED IN REMARKS
   TC - TEMPERATURE IN CELSIUS
  WCI - WIND CHILL INDEX
   HX - HEAT INDEX
  VSB - VISIBILITY





USA.gov is the U.S. government's official web portal to all federal, state and local government web resources and services.